[[[{"header":{"parameterUnit":"kt","parameterCategory":2,"dx":1,"dy":1,"la1":30.253999710083008,"la2":30.299108505249023,"lo1":-89.0895004272461,"lo2":-89.04439544677734,"nx":28,"ny":28,"refTime":"2022-10-28T21:00:00:Z","depth":0,"parameterNumber":1,"parameterNumberName":"U-component_of_WINDS"},"data":[-4.8849,-4.8857,-4.8876,-4.8895,-4.8915,-4.8931,-4.8943,-4.8961,-4.8981,-4.9004,-4.902,-4.9042,-4.907,-4.9096,-4.9116,-4.9126,-4.9132,-4.9121,-4.9134,-4.9166,-4.9171,-4.9177,-4.9175,-4.9123,-4.9122,-4.9097,-4.9096,-4.9096,-4.8872,-4.8891,-4.8907,-4.8935,-4.8948,-4.8971,-4.8996,-4.9006,-4.902,-4.9044,-4.9062,-4.9084,-4.9105,-4.9138,-4.9161,-4.9166,-4.9178,-4.9171,-4.917,-4.9174,-4.9209,-4.9207,-4.9161,-4.9161,-4.9161,-4.9161,-4.9161,-4.9161,-4.8917,-4.8921,-4.8949,-4.8966,-4.8986,-4.9005,-4.9012,-4.9038,-4.9054,-4.9079,-4.9101,-4.9118,-4.9146,-4.9185,-4.9203,-4.9217,-4.9229,-4.9227,-4.9226,-4.9225,-4.922,-4.9252,-4.9223,-4.9223,-4.9223,-4.9223,-4.9223,0,-4.8955,-4.8971,-4.8987,-4.9009,-4.9023,-4.9042,-4.9063,-4.9069,-4.911,-4.9121,-4.914,-4.9154,-4.9183,-4.9204,-4.923,-4.925,-4.9274,-4.9279,-4.9278,-4.9266,-4.9253,-4.9258,-4.9314,-4.9279,-4.928,-4.928,-4.9281,-4.9281,-4.9001,-4.9004,-4.9043,-4.9052,-4.9068,-4.9082,-4.9094,-4.913,-4.9142,-4.9174,-4.9176,-4.9197,-4.9216,-4.9244,-4.9274,-4.9296,-4.9308,-4.9293,-4.9311,-4.9301,-4.9306,-4.9304,-4.9305,-4.9287,-4.9286,-4.9286,-4.9285,0,-4.9024,-4.9056,-4.9067,-4.9105,-4.9115,-4.9117,-4.915,-4.9157,-4.9181,-4.9194,-4.9199,-4.9237,-4.9255,-4.9288,-4.9317,-4.9334,-4.9338,-4.935,-4.9328,-4.9331,-4.9319,-4.9319,-4.9279,-4.9275,-4.9331,-4.9331,-4.933,0,-4.9074,-4.9077,-4.9124,-4.9129,-4.9134,-4.9169,-4.9173,-4.9194,-4.9219,-4.9229,-4.9262,-4.9271,-4.9313,-4.9327,-4.9352,-4.9361,-4.9367,-4.938,-4.9386,-4.9376,-4.9374,-4.9381,-4.9382,-4.9402,-4.9402,-4.9402,-4.9402,0,-4.9105,-4.9135,-4.9143,-4.9155,-4.9196,-4.92,-4.9217,-4.9245,-4.9257,-4.9279,-4.9287,-4.931,-4.9322,-4.9339,-4.937,-4.9381,-4.9383,-4.9405,-4.9396,-4.9395,-4.9393,-4.9392,-4.935,-4.9403,-4.9403,-4.9403,-4.9403,0,-4.915,-4.917,-4.9178,-4.9213,-4.9219,-4.9225,-4.9249,-4.9262,-4.9289,-4.9305,-4.9322,-4.9347,-4.9359,-4.9378,-4.9395,-4.9401,-4.9411,-4.9425,-4.9425,-4.9426,-4.9446,-4.9415,-4.9373,-4.9369,-4.943,-4.943,-4.9431,0,-4.9176,-4.9193,-4.9223,-4.923,-4.9242,-4.9277,-4.9285,-4.9308,-4.933,-4.9344,-4.9368,-4.9383,-4.9405,-4.9414,-4.9419,-4.9444,-4.9437,-4.9446,-4.9465,-4.9465,-4.9455,-4.9417,-4.9401,-4.9379,-4.9434,-4.9434,-4.9433,0,-4.92,-4.925,-4.9249,-4.9263,-4.9299,-4.931,-4.9319,-4.9342,-4.9349,-4.9372,-4.938,-4.9404,-4.9421,-4.9436,-4.9459,-4.9461,-4.9443,-4.9479,-4.948,-4.947,-4.9439,-4.9424,-4.942,-4.9458,-4.9458,-4.9457,-4.9436,0,-4.9256,-4.9269,-4.9269,-4.93,-4.9314,-4.9321,-4.9355,-4.9365,-4.9385,-4.9407,-4.942,-4.9448,-4.9472,-4.9477,-4.9497,-4.9492,-4.9498,-4.9515,-4.9535,-4.951,-4.9504,-4.9502,-4.9541,-4.9542,-4.9543,-4.9543,0,0,-4.9273,-4.9292,-4.9325,-4.9334,-4.9347,-4.9383,-4.9387,-4.9405,-4.9439,-4.9447,-4.9459,-4.9495,-4.9516,-4.9529,-4.9524,-4.9534,-4.9536,-4.9543,-4.9522,-4.952,-4.9517,-4.951,-4.9507,-4.9545,-4.9545,-4.9545,-4.9545,0,-4.93,-4.9321,-4.9325,-4.9345,-4.9374,-4.9397,-4.9398,-4.9434,-4.9448,-4.9462,-4.9491,-4.9503,-4.9531,-4.955,-4.9563,-4.9543,-4.9564,-4.9548,-4.9525,-4.9528,-4.9524,-4.9521,-4.9513,-4.951,-4.9547,-4.9547,-4.9547,0,-4.9328,-4.9354,-4.936,-4.9392,-4.9412,-4.9424,-4.9453,-4.9465,-4.9474,-4.9513,-4.9525,-4.9545,-4.9573,-4.958,-4.9585,-4.9596,-4.9587,-4.9596,-4.9593,-4.9593,-4.9598,-4.9594,-4.959,-4.9638,-4.9638,-4.9638,0,0,-4.9347,-4.9359,-4.9398,-4.9401,-4.9411,-4.9446,-4.9456,-4.9477,-4.9501,-4.9511,-4.9536,-4.9559,-4.9576,-4.9586,-4.9603,-4.9607,-4.9615,-4.9606,-4.9601,-4.9598,-4.9596,-4.96,-4.9596,-4.9639,-4.9639,-4.9639,0,0,-4.9356,-4.9401,-4.9417,-4.9424,-4.9446,-4.9484,-4.9484,-4.9505,-4.9524,-4.9527,-4.9563,-4.9571,-4.9578,-4.9597,-4.9601,-4.9611,-4.963,-4.9629,-4.9598,-4.9593,-4.9589,-4.9584,-4.9634,0,0,0,0,0,-4.94,-4.9395,-4.9409,-4.9416,-4.9456,-4.9477,-4.9482,-4.9512,-4.9524,-4.9524,-4.9548,-4.957,-4.9607,-4.9612,-4.9617,-4.9611,-4.9647,-4.9646,-4.9644,-4.9605,-4.96,-4.9595,0,0,0,0,0,0,-4.9403,-4.9411,-4.941,-4.9447,-4.9457,-4.9477,-4.9505,-4.9513,-4.9525,-4.9529,-4.9565,-4.9571,-4.9597,-4.9611,-4.9616,-4.9609,-4.9633,-4.9647,-4.9645,-4.9644,-4.9603,-4.9599,-4.9595,0,0,0,0,0,-4.9405,-4.9411,-4.9469,-4.9448,-4.9456,-4.9494,-4.9505,-4.9512,-4.9522,-4.956,-4.9567,-4.9543,-4.9596,-4.9602,-4.9614,-4.9606,-4.963,-4.9632,-4.9646,-4.9645,-4.9644,-4.9601,0,0,0,0,0,0,-4.9407,-4.9418,-4.9471,-4.9475,-4.9452,-4.9493,-4.9501,-4.9511,-4.9553,-4.956,-4.9541,-4.9543,-4.9595,-4.96,-4.9604,-4.9603,-4.9628,-4.9629,-4.963,-4.9645,-4.9644,-4.9644,0,0,0,0,0,0,-4.9415,-4.9421,-4.9473,-4.9477,-4.9481,-4.9493,-4.9499,-4.9514,-4.9553,-4.9531,-4.9535,-4.9541,-4.9589,-4.9598,-4.9602,-4.9624,-4.9626,-4.9627,-4.9628,-4.9629,-4.9644,-4.9644,0,0,0,0,0,0,-4.9418,-4.9423,-4.9476,-4.9479,-4.9483,-4.9526,-4.9506,-4.9546,-4.9556,-4.9529,-4.9558,-4.9558,-4.9587,-4.9591,-4.96,-4.962,-4.9623,-4.9626,-4.9627,-4.9628,-4.9628,0,0,0,0,0,0,0,-4.942,-4.938,-4.945,-4.9481,-4.9485,-4.9508,-4.9509,-4.951,-4.9556,-4.9557,-4.9558,-4.9558,-4.9617,-4.9618,-4.962,-4.9617,0,0,-4.9626,-4.9626,0,0,0,0,0,0,0,0,-4.9378,-4.9379,-4.945,-4.9451,-4.9452,-4.9509,-4.9509,-4.951,-4.9556,-4.9557,-4.9557,-4.9558,-4.9617,-4.9619,-4.962,0,0,0,0,0,0,0,0,0,0,0,0,0,0,0,-4.945,-4.9451,0,-4.9509,-4.9509,-4.951,-4.9556,-4.9557,-4.9557,-4.9558,-4.9618,-4.9619,-4.962,0,0,0,0,0,0,0,0,0,0,0,0,0,0,0,0,0,0,0,0,0,0,0,0,0,0,0,0,0,0,0,0,0,0,0,0,0,0,0,0,0,0,0,0,0,0,0,0,0,0,0,0,0,0,0,0,0,0,0,0,0,0,0,0,0,0,0,0,0]}],[{"header":{"parameterUnit":"kt","parameterCategory":2,"dx":1,"dy":1,"la1":30.253999710083008,"la2":30.299108505249023,"lo1":-89.0895004272461,"lo2":-89.04439544677734,"nx":28,"ny":28,"refTime":"2022-10-28T21:00:00:Z","depth":0,"parameterNumber":2,"parameterNumberName":"V-component_of_WINDS"},"data":[4.5754,4.5899,4.5932,4.611,4.6169,4.6296,4.6351,4.6425,4.6491,4.6643,4.6736,4.6779,4.6855,4.697,4.7069,4.7086,4.7126,4.7156,4.717,4.7012,4.6992,4.6973,4.6943,4.7164,4.7164,4.733,4.7332,4.7333,4.564,4.5701,4.5804,4.5926,4.6015,4.6007,4.6101,4.6175,4.6287,4.6369,4.6461,4.6596,4.6705,4.6771,4.688,4.6945,4.6946,4.6972,4.6969,4.6981,4.6813,4.678,4.6971,4.697,4.697,4.697,4.697,4.697,4.5441,4.5526,4.5618,4.5731,4.58,4.588,4.5966,4.6019,4.6118,4.6238,4.6253,4.6378,4.6463,4.6607,4.6661,4.6758,4.6733,4.6771,4.678,4.679,4.6798,4.6559,4.6777,4.6777,4.6776,4.6776,4.6776,0,4.5305,4.5327,4.5427,4.5538,4.5621,4.5708,4.5793,4.5846,4.5896,4.5975,4.6092,4.6164,4.6304,4.6415,4.6522,4.657,4.6566,4.6567,4.6593,4.659,4.6575,4.6587,4.6314,4.656,4.6558,4.6557,4.6556,4.6556,4.5108,4.5202,4.5313,4.5379,4.5433,4.5538,4.5607,4.5644,4.5715,4.5822,4.5893,4.6005,4.6097,4.6274,4.6329,4.6432,4.6431,4.6523,4.6446,4.644,4.6435,4.643,4.644,4.6537,4.6539,4.6541,4.6543,0,4.4995,4.5045,4.52,4.5298,4.5326,4.5421,4.5504,4.5588,4.5628,4.5749,4.5778,4.584,4.5952,4.5993,4.6126,4.6144,4.63,4.6295,4.6273,4.6274,4.6362,4.6354,4.6636,4.6675,4.6444,4.6446,4.6448,0,4.4847,4.4968,4.5036,4.5122,4.5258,4.5292,4.5424,4.5471,4.5545,4.564,4.5643,4.5731,4.5769,4.5863,4.5888,4.6023,4.6047,4.6068,4.6074,4.607,4.6067,4.6106,4.6096,4.608,4.6079,4.6077,4.6076,0,4.4666,4.4841,4.4983,4.503,4.5145,4.521,4.526,4.5342,4.5408,4.5498,4.5541,4.5643,4.5699,4.5776,4.5809,4.5756,4.5973,4.5907,4.5996,4.5995,4.6042,4.6038,4.6278,4.6074,4.6074,4.6073,4.6073,0,4.4554,4.4649,4.4845,4.4941,4.4985,4.5076,4.5182,4.5269,4.5355,4.5378,4.5449,4.5454,4.5574,4.5505,4.567,4.5592,4.5647,4.5678,4.5685,4.5699,4.5621,4.5753,4.5975,4.6001,4.5711,4.5708,4.5705,0,4.4334,4.4545,4.4576,4.476,4.4863,4.4861,4.4963,4.5038,4.5078,4.5169,4.5211,4.5313,4.527,4.5308,4.5384,4.543,4.5531,4.5417,4.5546,4.5551,4.5527,4.5732,4.5756,4.5922,4.5667,4.5671,4.5674,0,4.417,4.4309,4.4339,4.4396,4.4502,4.4587,4.4702,4.4813,4.4872,4.4954,4.5053,4.5195,4.517,4.523,4.5244,4.5321,4.5464,4.5283,4.5285,4.5316,4.565,4.5673,4.5701,4.5456,4.546,4.5464,4.5644,0,4.3994,4.4104,4.4188,4.4309,4.438,4.4496,4.4542,4.4611,4.4619,4.4658,4.48,4.4869,4.4977,4.5018,4.5024,4.5188,4.5166,4.5137,4.5073,4.5206,4.5267,4.5291,4.498,4.4978,4.4977,4.4976,0,0,4.3771,4.393,4.3959,4.4074,4.4136,4.4131,4.4252,4.431,4.4429,4.4472,4.4437,4.4648,4.4704,4.4872,4.4917,4.4959,4.4993,4.4943,4.5142,4.516,4.5177,4.5241,4.5266,4.4973,4.4973,4.4972,4.4972,0,4.3717,4.378,4.3899,4.3962,4.4058,4.4093,4.4121,4.4213,4.4243,4.4382,4.4373,4.4463,4.4628,4.4691,4.4744,4.4925,4.4912,4.4954,4.5038,4.5126,4.5147,4.5165,4.5231,4.5255,4.4968,4.4969,4.4969,0,4.3565,4.3634,4.3696,4.3837,4.3898,4.4002,4.3948,4.4058,4.4135,4.4119,4.4257,4.43,4.4385,4.4537,4.4607,4.4576,4.4836,4.476,4.4769,4.4778,4.4865,4.4889,4.4911,4.4627,4.4626,4.4624,0,0,4.3511,4.3613,4.3697,4.3829,4.3868,4.3921,4.3979,4.3994,4.4072,4.4103,4.4159,4.4234,4.433,4.4393,4.4485,4.4645,4.4666,4.4716,4.4732,4.4745,4.4761,4.4851,4.4875,4.4619,4.4619,4.4619,0,0,4.3484,4.3588,4.3583,4.3742,4.3819,4.3908,4.3986,4.3981,4.4069,4.406,4.4085,4.4106,4.4249,4.429,4.4218,4.4463,4.4399,4.4417,4.4431,4.4452,4.4468,4.4455,4.4169,0,0,0,0,0,4.3451,4.3576,4.357,4.3603,4.3779,4.3912,4.3934,4.396,4.3916,4.3977,4.4023,4.4004,4.4257,4.4194,4.4225,4.4305,4.4554,4.4565,4.4576,4.4632,4.4654,4.4672,0,0,0,0,0,0,4.3465,4.3506,4.3567,4.3661,4.3701,4.3907,4.3838,4.3849,4.391,4.3905,4.3996,4.4007,4.4029,4.4179,4.4207,4.4283,4.4159,4.4558,4.4568,4.4577,4.464,4.4657,4.4672,0,0,0,0,0,4.3475,4.3508,4.3784,4.3659,4.3694,4.3758,4.3834,4.3842,4.3889,4.3959,4.3969,4.3903,4.4031,4.4056,4.4196,4.427,4.4141,4.4151,4.4565,4.4573,4.458,4.4648,0,0,0,0,0,0,4.3483,4.3516,4.3791,4.3803,4.3614,4.3747,4.3769,4.3836,4.394,4.3952,4.3866,4.3861,4.4033,4.4052,4.4071,4.4264,4.4125,4.4136,4.4142,4.4571,4.4577,4.4582,0,0,0,0,0,0,4.3498,4.3525,4.3797,4.3739,4.3744,4.3737,4.3756,4.3877,4.3941,4.3841,4.384,4.3863,4.4003,4.405,4.4065,4.4253,4.4113,4.4123,4.413,4.4134,4.4576,4.458,0,0,0,0,0,0,4.351,4.3534,4.3736,4.374,4.3744,4.3873,4.3844,4.4021,4.3894,4.3836,4.3883,4.3878,4.4002,4.4017,4.4061,4.4243,4.4251,4.4114,4.412,4.4125,4.4128,0,0,0,0,0,0,0,4.352,4.3358,4.3724,4.3741,4.3744,4.3908,4.3911,4.3914,4.3893,4.3889,4.3885,4.3881,4.4057,4.4067,4.4078,4.4235,0,0,4.4113,4.4117,0,0,0,0,0,0,0,0,4.3348,4.3355,4.3725,4.3727,4.3729,4.3908,4.3911,4.3913,4.3893,4.3889,4.3886,4.3882,4.4059,4.4068,4.4077,0,0,0,0,0,0,0,0,0,0,0,0,0,0,0,4.3725,4.3727,0,4.3909,4.3911,4.3913,4.3892,4.3889,4.3886,4.3884,4.4062,4.4069,4.4076,0,0,0,0,0,0,0,0,0,0,0,0,0,0,0,0,0,0,0,0,0,0,0,0,0,0,0,0,0,0,0,0,0,0,0,0,0,0,0,0,0,0,0,0,0,0,0,0,0,0,0,0,0,0,0,0,0,0,0,0,0,0,0,0,0,0,0,0,0]}]]]